Year,Month,Day,Hour,Minute,Value (Times are PST for temperature in C)
2016,11,07,00,00,9.60
2016,11,07,00,01,9.60
2016,11,07,00,02,9.60
2016,11,07,00,03,9.50
2016,11,07,00,04,9.50
2016,11,07,00,05,9.50
2016,11,07,00,06,9.50
2016,11,07,00,07,9.50
2016,11,07,00,08,9.50
2016,11,07,00,09,9.50
2016,11,07,00,10,9.50
2016,11,07,00,11,9.50
2016,11,07,00,12,9.50
2016,11,07,00,13,9.50
2016,11,07,00,14,9.50
2016,11,07,00,15,9.50
2016,11,07,00,16,9.50
2016,11,07,00,17,9.50
2016,11,07,00,18,9.50
2016,11,07,00,19,9.50
2016,11,07,00,20,9.50
2016,11,07,00,21,9.50
2016,11,07,00,22,9.50
2016,11,07,00,23,9.50
2016,11,07,00,24,9.50
2016,11,07,00,25,9.40
2016,11,07,00,26,9.50
2016,11,07,00,27,9.40
2016,11,07,00,28,9.40
2016,11,07,00,29,9.40
2016,11,07,00,30,9.40
2016,11,07,00,31,9.40
2016,11,07,00,32,9.40
2016,11,07,00,33,9.40
2016,11,07,00,34,9.40
2016,11,07,00,35,9.40
2016,11,07,00,36,9.40
2016,11,07,00,37,9.40
2016,11,07,00,38,9.40
2016,11,07,00,39,9.40
2016,11,07,00,40,9.40
2016,11,07,00,41,9.40
2016,11,07,00,42,9.40
2016,11,07,00,43,9.40
2016,11,07,00,44,9.40
2016,11,07,00,45,9.40
2016,11,07,00,46,9.40
2016,11,07,00,47,9.40
2016,11,07,00,48,9.40
2016,11,07,00,49,9.40
2016,11,07,00,50,9.40
2016,11,07,00,51,9.40
2016,11,07,00,52,9.40
2016,11,07,00,53,9.40
2016,11,07,00,54,9.40
2016,11,07,00,55,9.40
2016,11,07,00,56,9.40
2016,11,07,00,57,9.40
2016,11,07,00,58,9.40
2016,11,07,00,59,9.40
2016,11,07,01,00,9.40
2016,11,07,01,01,9.40
2016,11,07,01,02,9.40
2016,11,07,01,03,9.40
2016,11,07,01,04,9.40
2016,11,07,01,05,9.40
2016,11,07,01,06,9.40
2016,11,07,01,07,9.40
2016,11,07,01,08,9.40
2016,11,07,01,09,9.40
2016,11,07,01,10,9.40
2016,11,07,01,11,9.40
2016,11,07,01,12,9.40
2016,11,07,01,13,9.40
2016,11,07,01,14,9.40
2016,11,07,01,15,9.40
2016,11,07,01,16,9.40
2016,11,07,01,17,9.40
2016,11,07,01,18,9.40
2016,11,07,01,19,9.40
2016,11,07,01,20,9.40
2016,11,07,01,21,9.40
2016,11,07,01,22,9.40
2016,11,07,01,23,9.40
2016,11,07,01,24,9.40
2016,11,07,01,25,9.30
2016,11,07,01,26,9.40
2016,11,07,01,27,9.40
2016,11,07,01,28,9.30
2016,11,07,01,29,9.30
2016,11,07,01,30,9.30
2016,11,07,01,31,9.30
2016,11,07,01,32,9.30
2016,11,07,01,33,9.30
2016,11,07,01,34,9.30
2016,11,07,01,35,9.30
2016,11,07,01,36,9.30
2016,11,07,01,37,9.30
2016,11,07,01,38,9.30
2016,11,07,01,39,9.30
2016,11,07,01,40,9.30
2016,11,07,01,41,9.30
2016,11,07,01,42,9.30
2016,11,07,01,43,9.30
2016,11,07,01,44,9.30
2016,11,07,01,45,9.30
2016,11,07,01,46,9.30
2016,11,07,01,47,9.30
2016,11,07,01,48,9.30
2016,11,07,01,49,9.30
2016,11,07,01,50,9.30
2016,11,07,01,51,9.30
2016,11,07,01,52,9.30
2016,11,07,01,53,9.30
2016,11,07,01,54,9.30
2016,11,07,01,55,9.30
2016,11,07,01,56,9.30
2016,11,07,01,57,9.30
2016,11,07,01,58,9.40
2016,11,07,01,59,9.30
2016,11,07,02,00,9.40
2016,11,07,02,01,9.30
2016,11,07,02,02,9.30
2016,11,07,02,03,9.40
2016,11,07,02,04,9.30
2016,11,07,02,05,9.40
2016,11,07,02,06,9.40
2016,11,07,02,07,9.40
2016,11,07,02,08,9.40
2016,11,07,02,09,9.40
2016,11,07,02,10,9.40
2016,11,07,02,11,9.40
2016,11,07,02,12,9.40
2016,11,07,02,13,9.40
2016,11,07,02,14,9.40
2016,11,07,02,15,9.40
2016,11,07,02,16,9.40
2016,11,07,02,17,9.40
2016,11,07,02,18,9.40
2016,11,07,02,19,9.40
2016,11,07,02,20,9.40
2016,11,07,02,21,9.40
2016,11,07,02,22,9.40
2016,11,07,02,23,9.40
2016,11,07,02,24,9.30
2016,11,07,02,25,9.30
2016,11,07,02,26,9.30
2016,11,07,02,27,9.30
2016,11,07,02,28,9.30
2016,11,07,02,29,9.30
2016,11,07,02,30,9.30
2016,11,07,02,31,9.30
2016,11,07,02,32,9.30
2016,11,07,02,33,9.30
2016,11,07,02,34,9.30
2016,11,07,02,35,9.30
2016,11,07,02,36,9.30
2016,11,07,02,37,9.30
2016,11,07,02,38,9.30
2016,11,07,02,39,9.40
2016,11,07,02,40,9.40
2016,11,07,02,41,9.30
2016,11,07,02,42,9.30
2016,11,07,02,43,9.40
2016,11,07,02,44,9.40
2016,11,07,02,45,9.40
2016,11,07,02,46,9.40
2016,11,07,02,47,9.40
2016,11,07,02,48,9.40
2016,11,07,02,49,9.40
2016,11,07,02,50,9.40
2016,11,07,02,51,9.40
2016,11,07,02,52,9.40
2016,11,07,02,53,9.40
2016,11,07,02,54,9.40
2016,11,07,02,55,9.40
2016,11,07,02,56,9.40
2016,11,07,02,57,9.40
2016,11,07,02,58,9.40
2016,11,07,02,59,9.40
2016,11,07,03,00,9.40
2016,11,07,03,01,9.40
2016,11,07,03,02,9.40
2016,11,07,03,03,9.40
2016,11,07,03,04,9.40
2016,11,07,03,05,9.40
2016,11,07,03,06,9.40
2016,11,07,03,07,9.40
2016,11,07,03,08,9.40
2016,11,07,03,09,9.40
2016,11,07,03,10,9.40
2016,11,07,03,11,9.40
2016,11,07,03,12,9.50
2016,11,07,03,13,9.50
2016,11,07,03,14,9.50
2016,11,07,03,15,9.50
2016,11,07,03,16,9.50
2016,11,07,03,17,9.50
2016,11,07,03,18,9.50
2016,11,07,03,19,9.50
2016,11,07,03,20,9.50
2016,11,07,03,21,9.50
2016,11,07,03,22,9.50
2016,11,07,03,23,9.50
2016,11,07,03,24,9.50
2016,11,07,03,25,9.60
2016,11,07,03,26,9.50
2016,11,07,03,27,9.60
2016,11,07,03,28,9.60
2016,11,07,03,29,9.60
2016,11,07,03,30,9.60
2016,11,07,03,31,9.60
2016,11,07,03,32,9.60
2016,11,07,03,33,9.60
2016,11,07,03,34,9.60
2016,11,07,03,35,9.60
2016,11,07,03,36,9.60
2016,11,07,03,37,9.60
2016,11,07,03,38,9.60
2016,11,07,03,39,9.60
2016,11,07,03,40,9.50
2016,11,07,03,41,9.50
2016,11,07,03,42,9.50
2016,11,07,03,43,9.50
2016,11,07,03,44,9.50
2016,11,07,03,45,9.50
2016,11,07,03,46,9.40
2016,11,07,03,47,9.40
2016,11,07,03,48,9.40
2016,11,07,03,49,9.40
2016,11,07,03,50,9.40
2016,11,07,03,51,9.40
2016,11,07,03,52,9.40
2016,11,07,03,53,9.40
2016,11,07,03,54,9.40
2016,11,07,03,55,9.40
2016,11,07,03,56,9.40
2016,11,07,03,57,9.40
2016,11,07,03,58,9.40
2016,11,07,03,59,9.40
2016,11,07,04,00,9.40
2016,11,07,04,01,9.40
2016,11,07,04,02,9.40
2016,11,07,04,03,9.30
2016,11,07,04,04,9.30
2016,11,07,04,05,9.30
2016,11,07,04,06,9.30
2016,11,07,04,07,9.30
2016,11,07,04,08,9.30
2016,11,07,04,09,9.30
2016,11,07,04,10,9.30
2016,11,07,04,11,9.30
2016,11,07,04,12,9.30
2016,11,07,04,13,9.30
2016,11,07,04,14,9.30
2016,11,07,04,15,9.30
2016,11,07,04,16,9.30
2016,11,07,04,17,9.30
2016,11,07,04,18,9.30
2016,11,07,04,19,9.30
2016,11,07,04,20,9.30
2016,11,07,04,21,9.30
2016,11,07,04,22,9.30
2016,11,07,04,23,9.30
2016,11,07,04,24,9.30
2016,11,07,04,25,9.30
2016,11,07,04,26,9.30
2016,11,07,04,27,9.30
2016,11,07,04,28,9.30
2016,11,07,04,29,9.30
2016,11,07,04,30,9.30
2016,11,07,04,31,9.30
2016,11,07,04,32,9.30
2016,11,07,04,33,9.30
2016,11,07,04,34,9.30
2016,11,07,04,35,9.30
2016,11,07,04,36,9.30
2016,11,07,04,37,9.30
2016,11,07,04,38,9.30
2016,11,07,04,39,9.30
2016,11,07,04,40,9.30
2016,11,07,04,41,9.30
2016,11,07,04,42,9.30
2016,11,07,04,43,9.30
2016,11,07,04,44,9.30
2016,11,07,04,45,9.30
2016,11,07,04,46,9.30
2016,11,07,04,47,9.30
2016,11,07,04,48,9.30
2016,11,07,04,49,9.30
2016,11,07,04,50,9.30
2016,11,07,04,51,9.30
2016,11,07,04,52,9.30
2016,11,07,04,53,9.30
2016,11,07,04,54,9.30
2016,11,07,04,55,9.30
2016,11,07,04,56,9.30
2016,11,07,04,57,9.30
2016,11,07,04,58,9.30
2016,11,07,04,59,9.30
2016,11,07,05,00,9.30
2016,11,07,05,01,9.30
2016,11,07,05,02,9.30
2016,11,07,05,03,9.30
2016,11,07,05,04,9.40
2016,11,07,05,05,9.40
2016,11,07,05,06,9.40
2016,11,07,05,07,9.40
2016,11,07,05,08,9.40
2016,11,07,05,09,9.40
2016,11,07,05,10,9.40
2016,11,07,05,11,9.40
2016,11,07,05,12,9.40
2016,11,07,05,13,9.40
2016,11,07,05,14,9.40
2016,11,07,05,15,9.40
2016,11,07,05,16,9.40
2016,11,07,05,17,9.40
2016,11,07,05,18,9.40
2016,11,07,05,19,9.50
2016,11,07,05,20,9.50
2016,11,07,05,21,9.50
2016,11,07,05,22,9.50
2016,11,07,05,23,9.50
2016,11,07,05,24,9.50
2016,11,07,05,25,9.50
2016,11,07,05,26,9.50
2016,11,07,05,27,9.50
2016,11,07,05,28,9.50
2016,11,07,05,29,9.50
2016,11,07,05,30,9.50
2016,11,07,05,31,9.50
2016,11,07,05,32,9.50
2016,11,07,05,33,9.60
2016,11,07,05,34,9.50
2016,11,07,05,35,9.50
2016,11,07,05,36,9.50
2016,11,07,05,37,9.50
2016,11,07,05,38,9.50
2016,11,07,05,39,9.50
2016,11,07,05,40,9.50
2016,11,07,05,41,9.50
2016,11,07,05,42,9.50
2016,11,07,05,43,9.50
2016,11,07,05,44,9.50
2016,11,07,05,45,9.40
2016,11,07,05,46,9.40
2016,11,07,05,47,9.40
2016,11,07,05,48,9.40
2016,11,07,05,49,9.40
2016,11,07,05,50,9.40
2016,11,07,05,51,9.40
2016,11,07,05,52,9.40
2016,11,07,05,53,9.40
2016,11,07,05,54,9.40
2016,11,07,05,55,9.40
2016,11,07,05,56,9.40
2016,11,07,05,57,9.40
2016,11,07,05,58,9.40
2016,11,07,05,59,9.40
2016,11,07,06,00,9.40
2016,11,07,06,01,9.40
2016,11,07,06,02,9.40
2016,11,07,06,03,9.40
2016,11,07,06,04,9.40
2016,11,07,06,05,9.40
2016,11,07,06,06,9.40
2016,11,07,06,07,9.40
2016,11,07,06,08,9.40
2016,11,07,06,09,9.40
2016,11,07,06,10,9.40
2016,11,07,06,11,9.40
2016,11,07,06,12,9.40
2016,11,07,06,13,9.40
2016,11,07,06,14,9.40
2016,11,07,06,15,9.40
2016,11,07,06,16,9.40
2016,11,07,06,17,9.30
2016,11,07,06,18,9.30
2016,11,07,06,19,9.30
2016,11,07,06,20,9.40
2016,11,07,06,21,9.30
2016,11,07,06,22,9.30
2016,11,07,06,23,9.30
2016,11,07,06,24,9.40
2016,11,07,06,25,9.40
2016,11,07,06,26,9.40
2016,11,07,06,27,9.40
2016,11,07,06,28,9.30
2016,11,07,06,29,9.30
2016,11,07,06,30,9.40
2016,11,07,06,31,9.40
2016,11,07,06,32,9.40
2016,11,07,06,33,9.40
2016,11,07,06,34,9.40
2016,11,07,06,35,9.40
2016,11,07,06,36,9.40
2016,11,07,06,37,9.40
2016,11,07,06,38,9.40
2016,11,07,06,39,9.40
2016,11,07,06,40,9.40
2016,11,07,06,41,9.40
2016,11,07,06,42,9.40
2016,11,07,06,43,9.40
2016,11,07,06,44,9.40
2016,11,07,06,45,9.40
2016,11,07,06,46,9.40
2016,11,07,06,47,9.40
2016,11,07,06,48,9.40
2016,11,07,06,49,9.40
2016,11,07,06,50,9.40
2016,11,07,06,51,9.40
2016,11,07,06,52,9.40
2016,11,07,06,53,9.40
2016,11,07,06,54,9.40
2016,11,07,06,55,9.50
2016,11,07,06,56,9.50
2016,11,07,06,57,9.50
2016,11,07,06,58,9.50
2016,11,07,06,59,9.50
2016,11,07,07,00,9.50
2016,11,07,07,01,9.60
2016,11,07,07,02,9.60
2016,11,07,07,03,9.60
2016,11,07,07,04,9.60
2016,11,07,07,05,9.60
2016,11,07,07,06,9.60
2016,11,07,07,07,9.60
2016,11,07,07,08,9.60
2016,11,07,07,09,9.60
2016,11,07,07,10,9.70
2016,11,07,07,11,9.70
2016,11,07,07,12,9.70
2016,11,07,07,13,9.70
2016,11,07,07,14,9.70
2016,11,07,07,15,9.70
2016,11,07,07,16,9.70
2016,11,07,07,17,9.70
2016,11,07,07,18,9.80
2016,11,07,07,19,9.80
2016,11,07,07,20,9.80
2016,11,07,07,21,9.80
2016,11,07,07,22,9.80
2016,11,07,07,23,9.80
2016,11,07,07,24,9.80
2016,11,07,07,25,9.80
2016,11,07,07,26,9.80
2016,11,07,07,27,9.80
2016,11,07,07,28,9.90
2016,11,07,07,29,9.90
2016,11,07,07,30,9.90
2016,11,07,07,31,9.90
2016,11,07,07,32,9.90
2016,11,07,07,33,9.90
2016,11,07,07,34,9.90
2016,11,07,07,35,9.90
2016,11,07,07,36,9.90
2016,11,07,07,37,9.90
2016,11,07,07,38,9.80
2016,11,07,07,39,9.80
2016,11,07,07,40,9.80
2016,11,07,07,41,9.70
2016,11,07,07,42,9.70
2016,11,07,07,43,9.70
2016,11,07,07,44,9.60
2016,11,07,07,45,9.60
2016,11,07,07,46,9.60
2016,11,07,07,47,9.60
2016,11,07,07,48,9.60
2016,11,07,07,49,9.60
2016,11,07,07,50,9.60
2016,11,07,07,51,9.60
2016,11,07,07,52,9.50
2016,11,07,07,53,9.50
2016,11,07,07,54,9.50
2016,11,07,07,55,9.50
2016,11,07,07,56,9.50
2016,11,07,07,57,9.50
2016,11,07,07,58,9.50
2016,11,07,07,59,9.50
2016,11,07,08,00,9.50
2016,11,07,08,01,9.50
2016,11,07,08,02,9.40
2016,11,07,08,03,9.50
2016,11,07,08,04,9.50
2016,11,07,08,05,9.50
2016,11,07,08,06,9.50
2016,11,07,08,07,9.50
2016,11,07,08,08,9.50
2016,11,07,08,09,9.50
2016,11,07,08,10,9.50
2016,11,07,08,11,9.50
2016,11,07,08,12,9.50
2016,11,07,08,13,9.50
2016,11,07,08,14,9.50
2016,11,07,08,15,9.50
2016,11,07,08,16,9.50
2016,11,07,08,17,9.50
2016,11,07,08,18,9.50
2016,11,07,08,19,9.50
2016,11,07,08,20,9.50
2016,11,07,08,21,9.50
2016,11,07,08,22,9.50
2016,11,07,08,23,9.50
2016,11,07,08,24,9.50
2016,11,07,08,25,9.50
2016,11,07,08,26,9.60
2016,11,07,08,27,9.60
2016,11,07,08,28,9.60
2016,11,07,08,29,9.60
2016,11,07,08,30,9.60
2016,11,07,08,31,9.60
2016,11,07,08,32,9.60
2016,11,07,08,33,9.60
2016,11,07,08,34,9.60
2016,11,07,08,35,9.60
2016,11,07,08,36,9.60
2016,11,07,08,37,9.60
2016,11,07,08,38,9.60
2016,11,07,08,39,9.60
2016,11,07,08,40,9.60
2016,11,07,08,41,9.60
2016,11,07,08,42,9.60
2016,11,07,08,43,9.60
2016,11,07,08,44,9.60
2016,11,07,08,45,9.60
2016,11,07,08,46,9.60
2016,11,07,08,47,9.60
2016,11,07,08,48,9.60
2016,11,07,08,49,9.60
2016,11,07,08,50,9.60
2016,11,07,08,51,9.60
2016,11,07,08,52,9.60
2016,11,07,08,53,9.60
2016,11,07,08,54,9.60
2016,11,07,08,55,9.60
2016,11,07,08,56,9.60
2016,11,07,08,57,9.60
2016,11,07,08,58,9.60
2016,11,07,08,59,9.60
2016,11,07,09,00,9.60
2016,11,07,09,01,9.60
2016,11,07,09,02,9.60
2016,11,07,09,03,9.60
2016,11,07,09,04,9.60
2016,11,07,09,05,9.60
2016,11,07,09,06,9.70
2016,11,07,09,07,9.70
2016,11,07,09,08,9.70
2016,11,07,09,09,9.70
2016,11,07,09,10,9.70
2016,11,07,09,11,9.70
2016,11,07,09,12,9.70
2016,11,07,09,13,9.70
2016,11,07,09,14,9.70
2016,11,07,09,15,9.70
2016,11,07,09,16,9.70
2016,11,07,09,17,9.70
2016,11,07,09,18,9.70
2016,11,07,09,19,9.70
2016,11,07,09,20,9.70
2016,11,07,09,21,9.70
2016,11,07,09,22,9.70
2016,11,07,09,23,9.70
2016,11,07,09,24,9.80
2016,11,07,09,25,9.80
2016,11,07,09,26,9.80
2016,11,07,09,27,9.80
2016,11,07,09,28,9.80
2016,11,07,09,29,9.80
2016,11,07,09,30,9.80
2016,11,07,09,31,9.80
2016,11,07,09,32,9.80
2016,11,07,09,33,9.80
2016,11,07,09,34,9.80
2016,11,07,09,35,9.80
2016,11,07,09,36,9.80
2016,11,07,09,37,9.80
2016,11,07,09,38,9.80
2016,11,07,09,39,9.80
2016,11,07,09,40,9.80
2016,11,07,09,41,9.80
2016,11,07,09,42,9.80
2016,11,07,09,43,9.80
2016,11,07,09,44,9.80
2016,11,07,09,45,9.80
2016,11,07,09,46,9.90
2016,11,07,09,47,9.80
2016,11,07,09,48,9.90
2016,11,07,09,49,9.90
2016,11,07,09,50,9.90
2016,11,07,09,51,9.90
2016,11,07,09,52,9.90
2016,11,07,09,53,9.90
2016,11,07,09,54,9.90
2016,11,07,09,55,9.90
2016,11,07,09,56,9.90
2016,11,07,09,57,9.90
2016,11,07,09,58,9.90
2016,11,07,09,59,9.90
2016,11,07,10,00,9.90
2016,11,07,10,01,9.90
2016,11,07,10,02,9.90
2016,11,07,10,03,9.90
2016,11,07,10,04,9.90
2016,11,07,10,05,9.90
2016,11,07,10,06,9.90
2016,11,07,10,07,9.90
2016,11,07,10,08,9.90
2016,11,07,10,09,9.90
2016,11,07,10,10,9.90
2016,11,07,10,11,9.90
2016,11,07,10,12,9.90
2016,11,07,10,13,9.90
2016,11,07,10,14,9.90
2016,11,07,10,15,9.90
2016,11,07,10,16,9.90
2016,11,07,10,17,9.90
2016,11,07,10,18,9.90
2016,11,07,10,19,9.90
2016,11,07,10,20,9.90
2016,11,07,10,21,9.90
2016,11,07,10,22,9.90
2016,11,07,10,23,9.80
2016,11,07,10,24,9.90
2016,11,07,10,25,9.90
2016,11,07,10,26,9.90
2016,11,07,10,27,9.90
2016,11,07,10,28,9.80
2016,11,07,10,29,9.80
2016,11,07,10,30,9.80
2016,11,07,10,31,9.80
2016,11,07,10,32,9.80
2016,11,07,10,33,9.80
2016,11,07,10,34,9.80
2016,11,07,10,35,9.80
2016,11,07,10,36,9.80
2016,11,07,10,37,9.80
2016,11,07,10,38,9.80
2016,11,07,10,39,9.80
2016,11,07,10,40,9.80
2016,11,07,10,41,9.80
2016,11,07,10,42,9.90
2016,11,07,10,43,9.90
2016,11,07,10,44,9.90
2016,11,07,10,45,9.90
2016,11,07,10,46,9.90
2016,11,07,10,47,9.90
2016,11,07,10,48,9.90
2016,11,07,10,49,9.90
2016,11,07,10,50,9.90
2016,11,07,10,51,9.90
2016,11,07,10,52,9.90
2016,11,07,10,53,9.90
2016,11,07,10,54,9.90
2016,11,07,10,55,9.90
2016,11,07,10,56,9.90
2016,11,07,10,57,9.90
2016,11,07,10,58,9.90
2016,11,07,10,59,9.90
2016,11,07,11,00,9.90
2016,11,07,11,01,9.90
2016,11,07,11,02,9.90
2016,11,07,11,03,10.00
2016,11,07,11,04,10.00
2016,11,07,11,05,10.00
2016,11,07,11,06,10.00
2016,11,07,11,07,10.00
2016,11,07,11,08,9.90
2016,11,07,11,09,10.00
2016,11,07,11,10,10.00
2016,11,07,11,11,10.00
2016,11,07,11,12,10.00
2016,11,07,11,13,10.00
2016,11,07,11,14,10.00
2016,11,07,11,15,10.00
2016,11,07,11,16,10.00
2016,11,07,11,17,10.10
2016,11,07,11,18,10.10
2016,11,07,11,19,10.10
2016,11,07,11,20,10.10
2016,11,07,11,21,10.10
2016,11,07,11,22,10.10
2016,11,07,11,23,10.10
2016,11,07,11,24,10.10
2016,11,07,11,25,10.10
2016,11,07,11,26,10.10
2016,11,07,11,27,10.10
2016,11,07,11,28,10.20
2016,11,07,11,29,10.20
2016,11,07,11,30,10.20
2016,11,07,11,31,10.20
2016,11,07,11,32,10.20
2016,11,07,11,33,10.20
2016,11,07,11,34,10.20
2016,11,07,11,35,10.20
2016,11,07,11,36,10.20
2016,11,07,11,37,10.20
2016,11,07,11,38,10.20
2016,11,07,11,39,10.20
2016,11,07,11,40,10.20
2016,11,07,11,41,10.20
2016,11,07,11,42,10.30
2016,11,07,11,43,10.30
2016,11,07,11,44,10.30
2016,11,07,11,45,10.30
2016,11,07,11,46,10.30
2016,11,07,11,47,10.30
2016,11,07,11,48,10.30
2016,11,07,11,49,10.30
2016,11,07,11,50,10.30
2016,11,07,11,51,10.30
2016,11,07,11,52,10.30
2016,11,07,11,53,10.30
2016,11,07,11,54,10.30
2016,11,07,11,55,10.30
2016,11,07,11,56,10.30
2016,11,07,11,57,10.30
2016,11,07,11,58,10.30
2016,11,07,11,59,10.30
2016,11,07,12,00,10.30
2016,11,07,12,01,10.40
2016,11,07,12,02,10.40
2016,11,07,12,03,10.40
2016,11,07,12,04,10.40
2016,11,07,12,05,10.40
2016,11,07,12,06,10.40
2016,11,07,12,07,10.40
2016,11,07,12,08,10.40
2016,11,07,12,09,10.50
2016,11,07,12,10,10.50
2016,11,07,12,11,10.50
2016,11,07,12,12,10.50
2016,11,07,12,13,10.50
2016,11,07,12,14,10.50
2016,11,07,12,15,10.60
2016,11,07,12,16,10.60
2016,11,07,12,17,10.60
2016,11,07,12,18,10.60
2016,11,07,12,19,10.60
2016,11,07,12,20,10.60
2016,11,07,12,21,10.60
2016,11,07,12,22,10.60
2016,11,07,12,23,10.70
2016,11,07,12,24,10.70
2016,11,07,12,25,10.70
2016,11,07,12,26,10.70
2016,11,07,12,27,10.70
2016,11,07,12,28,10.70
2016,11,07,12,29,10.70
2016,11,07,12,30,10.70
2016,11,07,12,31,10.70
2016,11,07,12,32,10.80
2016,11,07,12,33,10.80
2016,11,07,12,34,10.80
2016,11,07,12,35,10.80
2016,11,07,12,36,10.80
2016,11,07,12,37,10.80
2016,11,07,12,38,10.80
2016,11,07,12,39,10.80
2016,11,07,12,40,10.80
2016,11,07,12,41,10.80
2016,11,07,12,42,10.80
2016,11,07,12,43,10.80
2016,11,07,12,44,10.80
2016,11,07,12,45,10.80
2016,11,07,12,46,10.80
2016,11,07,12,47,10.80
2016,11,07,12,48,10.80
2016,11,07,12,49,10.80
2016,11,07,12,50,10.80
2016,11,07,12,51,10.80
2016,11,07,12,52,10.80
2016,11,07,12,53,10.80
2016,11,07,12,54,10.80
2016,11,07,12,55,10.80
2016,11,07,12,56,10.80
2016,11,07,12,57,10.80
2016,11,07,12,58,10.80
2016,11,07,12,59,10.80
2016,11,07,13,00,10.80
2016,11,07,13,01,10.80
2016,11,07,13,02,10.80
2016,11,07,13,03,10.80
2016,11,07,13,04,10.80
2016,11,07,13,05,10.80
2016,11,07,13,06,10.80
2016,11,07,13,07,10.90
2016,11,07,13,08,10.90
2016,11,07,13,09,10.80
2016,11,07,13,10,10.80
2016,11,07,13,11,10.80
2016,11,07,13,12,10.80
2016,11,07,13,13,10.80
2016,11,07,13,14,10.80
2016,11,07,13,15,10.80
2016,11,07,13,16,10.80
2016,11,07,13,17,10.80
2016,11,07,13,18,10.80
2016,11,07,13,19,10.80
2016,11,07,13,20,10.80
2016,11,07,13,21,10.90
2016,11,07,13,22,10.90
2016,11,07,13,23,10.90
2016,11,07,13,24,10.90
2016,11,07,13,25,10.90
2016,11,07,13,26,10.90
2016,11,07,13,27,10.90
2016,11,07,13,28,10.90
2016,11,07,13,29,10.90
2016,11,07,13,30,10.90
2016,11,07,13,31,10.90
2016,11,07,13,32,10.90
2016,11,07,13,33,10.90
2016,11,07,13,34,10.90
2016,11,07,13,35,10.90
2016,11,07,13,36,10.90
2016,11,07,13,37,10.80
2016,11,07,13,38,10.80
2016,11,07,13,39,10.80
2016,11,07,13,40,10.80
2016,11,07,13,41,10.80
2016,11,07,13,42,10.80
2016,11,07,13,43,10.80
2016,11,07,13,44,10.80
2016,11,07,13,45,10.80
2016,11,07,13,46,10.80
2016,11,07,13,47,10.80
2016,11,07,13,48,10.80
2016,11,07,13,49,10.80
2016,11,07,13,50,10.80
2016,11,07,13,51,10.80
2016,11,07,13,52,10.80
2016,11,07,13,53,10.80
2016,11,07,13,54,10.80
2016,11,07,13,55,10.80
2016,11,07,13,56,10.80
2016,11,07,13,57,10.80
2016,11,07,13,58,10.90
2016,11,07,13,59,10.90
2016,11,07,14,00,10.90
2016,11,07,14,01,10.90
2016,11,07,14,02,10.90
2016,11,07,14,03,11.00
2016,11,07,14,04,11.00
2016,11,07,14,05,11.00
2016,11,07,14,06,11.10
2016,11,07,14,07,11.10
2016,11,07,14,08,11.10
2016,11,07,14,09,11.10
2016,11,07,14,10,11.10
2016,11,07,14,11,11.10
2016,11,07,14,12,11.10
2016,11,07,14,13,11.10
2016,11,07,14,14,11.10
2016,11,07,14,15,11.10
2016,11,07,14,16,11.10
2016,11,07,14,17,11.10
2016,11,07,14,18,11.10
2016,11,07,14,19,11.10
2016,11,07,14,20,11.10
2016,11,07,14,21,11.10
2016,11,07,14,22,11.20
2016,11,07,14,23,11.10
2016,11,07,14,24,11.10
2016,11,07,14,25,11.10
2016,11,07,14,26,11.10
2016,11,07,14,27,11.10
2016,11,07,14,28,11.10
2016,11,07,14,29,11.10
2016,11,07,14,30,11.10
2016,11,07,14,31,11.10
2016,11,07,14,32,11.10
2016,11,07,14,33,11.10
2016,11,07,14,34,11.10
2016,11,07,14,35,11.10
2016,11,07,14,36,11.10
2016,11,07,14,37,11.00
2016,11,07,14,38,11.00
2016,11,07,14,39,10.90
2016,11,07,14,40,10.90
2016,11,07,14,41,10.90
2016,11,07,14,42,10.90
2016,11,07,14,43,10.80
2016,11,07,14,44,10.80
2016,11,07,14,45,10.80
2016,11,07,14,46,10.80
2016,11,07,14,47,10.80
2016,11,07,14,48,10.80
2016,11,07,14,49,10.80
2016,11,07,14,50,10.80
2016,11,07,14,51,10.80
2016,11,07,14,52,10.80
2016,11,07,14,53,10.80
2016,11,07,14,54,10.80
2016,11,07,14,55,10.80
2016,11,07,14,56,10.80
2016,11,07,14,57,10.80
2016,11,07,14,58,10.80
2016,11,07,14,59,10.80
2016,11,07,15,00,10.80
2016,11,07,15,01,10.80
2016,11,07,15,02,10.80
2016,11,07,15,03,10.80
2016,11,07,15,04,10.80
2016,11,07,15,05,10.80
2016,11,07,15,06,10.80
2016,11,07,15,07,10.80
2016,11,07,15,08,10.80
2016,11,07,15,09,10.90
2016,11,07,15,10,10.90
2016,11,07,15,11,10.90
2016,11,07,15,12,10.90
2016,11,07,15,13,10.90
2016,11,07,15,14,10.90
2016,11,07,15,15,10.90
2016,11,07,15,16,10.90
2016,11,07,15,17,10.90
2016,11,07,15,18,10.90
2016,11,07,15,19,10.90
2016,11,07,15,20,10.90
2016,11,07,15,21,10.90
2016,11,07,15,22,10.90
2016,11,07,15,23,10.90
2016,11,07,15,24,10.90
2016,11,07,15,25,10.90
2016,11,07,15,26,10.90
2016,11,07,15,27,10.90
2016,11,07,15,28,10.90
2016,11,07,15,29,10.90
2016,11,07,15,30,10.90
2016,11,07,15,31,10.90
2016,11,07,15,32,10.90
2016,11,07,15,33,10.90
2016,11,07,15,34,10.90
2016,11,07,15,35,11.00
2016,11,07,15,36,11.00
2016,11,07,15,37,11.00
2016,11,07,15,38,11.00
2016,11,07,15,39,11.10
2016,11,07,15,40,11.10
2016,11,07,15,41,11.10
2016,11,07,15,42,11.10
2016,11,07,15,43,11.10
2016,11,07,15,44,11.10
2016,11,07,15,45,11.10
2016,11,07,15,46,11.10
2016,11,07,15,47,11.10
2016,11,07,15,48,11.10
2016,11,07,15,49,11.10
2016,11,07,15,50,11.10
2016,11,07,15,51,11.10
2016,11,07,15,52,11.10
2016,11,07,15,53,11.10
2016,11,07,15,54,11.10
2016,11,07,15,55,11.10
2016,11,07,15,56,11.10
2016,11,07,15,57,11.10
2016,11,07,15,58,11.10
2016,11,07,15,59,11.10
2016,11,07,16,00,11.10
2016,11,07,16,01,11.00
2016,11,07,16,02,11.00
2016,11,07,16,03,11.00
2016,11,07,16,04,11.10
2016,11,07,16,05,11.00
2016,11,07,16,06,11.10
2016,11,07,16,07,11.10
2016,11,07,16,08,11.10
2016,11,07,16,09,11.10
2016,11,07,16,10,11.10
2016,11,07,16,11,11.10
2016,11,07,16,12,11.10
2016,11,07,16,13,11.10
2016,11,07,16,14,11.10
2016,11,07,16,15,11.10
2016,11,07,16,16,11.20
2016,11,07,16,17,11.10
2016,11,07,16,18,11.10
2016,11,07,16,19,11.10
2016,11,07,16,20,11.10
2016,11,07,16,21,11.10
2016,11,07,16,22,11.10
2016,11,07,16,23,11.10
2016,11,07,16,24,11.10
2016,11,07,16,25,11.10
2016,11,07,16,26,11.10
2016,11,07,16,27,11.10
2016,11,07,16,28,11.10
2016,11,07,16,29,11.10
2016,11,07,16,30,11.20
2016,11,07,16,31,11.20
2016,11,07,16,32,11.20
2016,11,07,16,33,11.20
2016,11,07,16,34,11.20
2016,11,07,16,35,11.20
2016,11,07,16,36,11.30
2016,11,07,16,37,11.30
2016,11,07,16,38,11.30
2016,11,07,16,39,11.30
2016,11,07,16,40,11.30
2016,11,07,16,41,11.30
2016,11,07,16,42,11.30
2016,11,07,16,43,11.30
2016,11,07,16,44,11.30
2016,11,07,16,45,11.30
2016,11,07,16,46,11.30
2016,11,07,16,47,11.30
2016,11,07,16,48,11.30
2016,11,07,16,49,11.30
2016,11,07,16,50,11.30
2016,11,07,16,51,11.20
2016,11,07,16,52,11.20
2016,11,07,16,53,11.20
2016,11,07,16,54,11.20
2016,11,07,16,55,11.20
2016,11,07,16,56,11.20
2016,11,07,16,57,11.20
2016,11,07,16,58,11.20
2016,11,07,16,59,11.20
2016,11,07,17,00,11.20
2016,11,07,17,01,11.20
2016,11,07,17,02,11.30
2016,11,07,17,03,11.30
2016,11,07,17,04,11.30
2016,11,07,17,05,11.30
2016,11,07,17,06,11.30
2016,11,07,17,07,11.30
2016,11,07,17,08,11.30
2016,11,07,17,09,11.30
2016,11,07,17,10,11.40
2016,11,07,17,11,11.40
2016,11,07,17,12,11.40
2016,11,07,17,13,11.40
2016,11,07,17,14,11.40
2016,11,07,17,15,11.50
2016,11,07,17,16,11.50
2016,11,07,17,17,11.60
2016,11,07,17,18,11.60
2016,11,07,17,19,11.60
2016,11,07,17,20,11.70
2016,11,07,17,21,11.70
2016,11,07,17,22,11.70
2016,11,07,17,23,11.70
2016,11,07,17,24,11.80
2016,11,07,17,25,11.80
2016,11,07,17,26,11.80
2016,11,07,17,27,11.80
2016,11,07,17,28,11.80
2016,11,07,17,29,11.80
2016,11,07,17,30,11.80
2016,11,07,17,31,11.80
2016,11,07,17,32,11.80
2016,11,07,17,33,11.70
2016,11,07,17,34,11.70
2016,11,07,17,35,11.70
2016,11,07,17,36,11.70
2016,11,07,17,37,11.70
2016,11,07,17,38,11.70
2016,11,07,17,39,11.70
2016,11,07,17,40,11.60
2016,11,07,17,41,11.60
2016,11,07,17,42,11.60
2016,11,07,17,43,11.60
2016,11,07,17,44,11.60
2016,11,07,17,45,11.60
2016,11,07,17,46,11.60
2016,11,07,17,47,11.60
2016,11,07,17,48,11.60